Weather Roundup
Issued by NWS Chicago, IL

Home | Current Version | Previous Version | Text Only | Print | Product List | Glossary On
Versions: 1 2 3 4 5 6 7 8 9 10 11 12 13 14 15 16 17 18 19 20 21 22 23 24 25 26 27 28 29 30 31 32 33 34 35 36 37 38 39 40 41 42 43 44 45 46 47 48 49 50
000
NZUS59 KLOT 232210
HRRLOT

CHICAGO AREA WEATHER ROUNDUP
NATIONAL WEATHER SERVICE CHICAGO/ROMEOVILLE IL
500 PM CDT WED APR 23 2014

NOTE: "FAIR" INDICATES FEW OR NO CLOUDS BELOW 12,000 FEET WITH NO
SIGNIFICANT WEATHER AND/OR OBSTRUCTIONS TO VISIBILITY.

* THESE STATIONS ARE NOT UNDER NWS QUALITY CONTROL. THEY ALSO MAY NOT
  REPORT WEATHER SUCH AS PRECIPITATION OR FOG.

ILZ005-006-012>014-019>023-232300-
NORTHEAST ILLINOIS

CITY           SKY/WX    TMP DP  RH WIND       PRES   REMARKS
OHARE          CLOUDY    47  21  35 NE8       30.12S
MIDWAY         PTSUNNY   48  25  40 N10       30.13S
AURORA         PTSUNNY   55  26  32 E7        30.11S
LANSING*       SUNNY     46  27  47 N7        30.13R
JOLIET*        MOSUNNY   53  26  35 E9        30.11F
WAUKEGAN       PTSUNNY   42  20  41 N9        30.13S
DUPAGE AIRPORT PTSUNNY   51  25  36 NE9       30.11S
WHEELING       MOSUNNY   46  23  40 VRB6      30.15R
KANKAKEE*      MOSUNNY   56  32  39 NE8       30.10R
MORRIS*        MOSUNNY   56  20  24 E7        30.09S
LEWIS AIRPORT* MOSUNNY   51  26  36 E9        30.11S
NORTHERLY IS     N/A     42  29  60 N12         N/A
$$

WIZ051-052-058>065-066-070>072-232300-
SOUTHEAST WISCONSIN

CITY           SKY/WX    TMP DP  RH WIND       PRES   REMARKS
MILWAUKEE      CLOUDY    42  23  46 NE7       30.16S
KENOSHA*       PTSUNNY   44  22  41 E9        30.14S
RACINE*        PTSUNNY   44  23  43 NE8       30.15F
BURLINGTON     CLOUDY    47  23  37 E7        30.13R
WAUKESHA       PTSUNNY   45  19  36 E9        30.14S
WEST BEND      PTSUNNY   45  19  36 E7        30.13F
$$

INZ001>003-010>013-019-020-232300-
NORTHWEST INDIANA

CITY           SKY/WX    TMP DP  RH WIND       PRES   REMARKS
GARY*          MOSUNNY   43  30  61 N10       30.15S
MICHIGAN CITY* NOT AVBL
RENSSELAER*    NOT AVBL
VALPARAISO     SUNNY     49  30  48 N8        30.10F
$$

LMZ740>746-232300-
SOUTHERN LAKE MICHIGAN

STATION/POSITION TIME  SKY/WX   TEMP WIND        PRES    VSBY
                                AIR  DIR/SP/G
                 (UTC)          (F)  (DEG/KT/KT) (MB)    (MI)
HARRISON CRIB    2200            38  360/ 10/ 11   N/A
BURNHAM HARBOR   2200            42  350/  8/ 13   N/A
CALUMET HARBOR   2200            40  340/ 11/ 13 1021.5R
BURNS HARBOR     NOT AVBL
MICHIGAN CITY    2200            38  360/ 10/ 11   N/A
$$

ABBREVIATIONS USED IN REMARKS
   TC - TEMPERATURE IN CELSIUS
  WCI - WIND CHILL INDEX
   HX - HEAT INDEX
  VSB - VISIBILITY
$$


USA.gov is the U.S. government's official web portal to all federal, state and local government web resources and services.